| time (UTC) | temp C | wind direction | speed KPH | gust KPH | rain 1hr cm | rain 24hr cm | rain mn cm | humidity % | barometer mb |
| 20260502162210 | 29 | 74 | 0.0 | 1.6 | 0.00 | 0.00 | 0.00 | 25 | 1015.0 |
| 20260502161708 | 28 | 67 | 0.0 | 1.6 | 0.00 | 0.00 | 0.00 | 24 | 1015.2 |
| 20260502161204 | 28 | 57 | 0.0 | 1.6 | 0.00 | 0.00 | 0.00 | 23 | 1015.1 |
| 20260502160703 | 28 | 32 | 0.0 | 3.2 | 0.00 | 0.00 | 0.00 | 23 | 1015.3 |
| 20260502160202 | 28 | 94 | 0.0 | 0.0 | 0.00 | 0.00 | 0.00 | 23 | 1014.9 |
| 20260502152121 | 27 | 105 | 0.0 | 0.0 | 0.00 | 0.00 | 0.00 | 24 | 1014.6 |
| 20260502151618 | 27 | 91 | 0.0 | 0.0 | 0.00 | 0.00 | 0.00 | 24 | 1014.8 |
| 20260502151115 | 27 | 99 | 0.0 | 0.0 | 0.00 | 0.00 | 0.00 | 24 | 1014.8 |
| 20260502150613 | 26 | 70 | 0.0 | 1.6 | 0.00 | 0.00 | 0.00 | 25 | 1014.7 |
| 20260502150109 | 26 | 93 | 0.0 | 0.0 | 0.00 | 0.00 | 0.00 | 26 | 1014.6 |
| 20260502130457 | 21 | 40 | 0.0 | 0.0 | 0.00 | 0.00 | 0.00 | 31 | 1013.3 |
| 20260502123440 | 18 | 58 | 0.0 | 0.0 | 0.00 | 0.00 | 0.00 | 39 | 1013.1 |
| 20260502122937 | 18 | 60 | 0.0 | 0.0 | 0.00 | 0.00 | 0.00 | 43 | 1013.1 |
| 20260502122433 | 18 | 71 | 0.0 | 0.0 | 0.00 | 0.00 | 0.00 | 41 | 1012.9 |
| 20260502121932 | 18 | 39 | 0.0 | 0.0 | 0.00 | 0.00 | 0.00 | 41 | 1012.8 |
| 20260502121428 | 19 | 78 | 0.0 | 0.0 | 0.00 | 0.00 | 0.00 | 42 | 1012.9 |
| 20260502120926 | 19 | 82 | 0.0 | 0.0 | 0.00 | 0.00 | 0.00 | 36 | 1012.5 |
| 20260502120422 | 19 | 80 | 0.0 | 0.0 | 0.00 | 0.00 | 0.00 | 35 | 1012.7 |
| 20260502115919 | 19 | 86 | 0.0 | 0.0 | 0.00 | 0.00 | 0.00 | 35 | 1012.8 |
| 20260502115416 | 18 | 84 | 0.0 | 0.0 | 0.00 | 0.00 | 0.00 | 35 | 1012.8 |
| 20260502114912 | 19 | 90 | 0.0 | 0.0 | 0.00 | 0.00 | 0.00 | 35 | 1012.7 |
| 20260502114409 | 19 | 90 | 0.0 | 0.0 | 0.00 | 0.00 | 0.00 | 35 | 1012.8 |
| 20260502113906 | 19 | 96 | 0.0 | 0.0 | 0.00 | 0.00 | 0.00 | 34 | 1012.5 |
| 20260502113404 | 20 | 101 | 0.0 | 0.0 | 0.00 | 0.00 | 0.00 | 34 | 1012.7 |
| 20260502112902 | 20 | 97 | 0.0 | 0.0 | 0.00 | 0.00 | 0.00 | 35 | 1012.4 |
| 20260502112400 | 20 | 93 | 0.0 | 0.0 | 0.00 | 0.00 | 0.00 | 33 | 1012.2 |
| 20260502111857 | 20 | 84 | 0.0 | 0.0 | 0.00 | 0.00 | 0.00 | 32 | 1012.5 |
| 20260502111354 | 21 | 80 | 0.0 | 0.0 | 0.00 | 0.00 | 0.00 | 32 | 1012.3 |
| 20260502110851 | 21 | 82 | 0.0 | 0.0 | 0.00 | 0.00 | 0.00 | 31 | 1012.3 |
| 20260502110349 | 22 | 79 | 0.0 | 0.0 | 0.00 | 0.00 | 0.00 | 30 | 1012.4 |
| 20260502105846 | 22 | 73 | 0.0 | 0.0 | 0.00 | 0.00 | 0.00 | 29 | 1012.4 |
| 20260502105343 | 22 | 51 | 0.0 | 0.0 | 0.00 | 0.00 | 0.00 | 29 | 1012.5 |
| 20260502104841 | 22 | 44 | 0.0 | 0.0 | 0.00 | 0.00 | 0.00 | 29 | 1012.7 |
| 20260502104338 | 22 | 53 | 0.0 | 0.0 | 0.00 | 0.00 | 0.00 | 28 | 1012.5 |
| 20260502103835 | 22 | 48 | 0.0 | 0.0 | 0.00 | 0.00 | 0.00 | 28 | 1012.3 |
| 20260502103333 | 22 | 54 | 0.0 | 0.0 | 0.00 | 0.00 | 0.00 | 29 | 1012.2 |
| 20260502102830 | 22 | 36 | 0.0 | 0.0 | 0.00 | 0.00 | 0.00 | 30 | 1012.2 |
| 20260502102326 | 21 | 50 | 0.0 | 0.0 | 0.00 | 0.00 | 0.00 | 31 | 1012.1 |
| 20260502101824 | 22 | 50 | 0.0 | 0.0 | 0.00 | 0.00 | 0.00 | 31 | 1012.4 |
| 20260502101322 | 22 | 55 | 0.0 | 0.0 | 0.00 | 0.00 | 0.00 | 31 | 1012.4 |
| 20260502100820 | 22 | 50 | 0.0 | 0.0 | 0.00 | 0.00 | 0.00 | 29 | 1012.2 |
| 20260502100319 | 22 | 53 | 0.0 | 0.0 | 0.00 | 0.00 | 0.00 | 29 | 1012.2 |
| 20260502091253 | 23 | 333 | 0.0 | 1.6 | 0.00 | 0.00 | 0.00 | 28 | 1011.7 |
| 20260502090750 | 22 | 346 | 0.0 | 0.0 | 0.00 | 0.00 | 0.00 | 28 | 1011.9 |
| 20260502090246 | 22 | 33 | 0.0 | 0.0 | 0.00 | 0.00 | 0.00 | 29 | 1012.0 |
| 20260502071142 | 21 | 49 | 0.0 | 1.6 | 0.00 | 0.00 | 0.00 | 38 | 1011.4 |
| 20260502070640 | 21 | 33 | 0.0 | 0.0 | 0.00 | 0.00 | 0.00 | 39 | 1011.3 |
| 20260502070137 | 22 | 63 | 0.0 | 0.0 | 0.00 | 0.00 | 0.00 | 36 | 1011.1 |
| 20260502065635 | 22 | 338 | 0.0 | 0.0 | 0.00 | 0.00 | 0.00 | 34 | 1011.2 |
| 20260502065132 | 22 | 70 | 0.0 | 0.0 | 0.00 | 0.00 | 0.00 | 35 | 1011.3 |
| 20260502064631 | 22 | 81 | 0.0 | 0.0 | 0.00 | 0.00 | 0.00 | 34 | 1011.0 |
| 20260502064128 | 22 | 66 | 0.0 | 0.0 | 0.00 | 0.00 | 0.00 | 35 | 1011.1 |
| 20260502063626 | 22 | 77 | 0.0 | 0.0 | 0.00 | 0.00 | 0.00 | 37 | 1011.3 |
| 20260502063123 | 23 | 78 | 0.0 | 0.0 | 0.00 | 0.00 | 0.00 | 31 | 1011.1 |
| 20260502062620 | 23 | 162 | 0.0 | 0.0 | 0.00 | 0.00 | 0.00 | 29 | 1011.0 |
| 20260502062118 | 23 | 55 | 0.0 | 0.0 | 0.00 | 0.00 | 0.00 | 29 | 1011.0 |
| 20260502061616 | 23 | 95 | 0.0 | 0.0 | 0.00 | 0.00 | 0.00 | 31 | 1011.0 |
| 20260502061114 | 23 | 84 | 0.0 | 0.0 | 0.00 | 0.00 | 0.00 | 30 | 1010.7 |
| 20260502060613 | 22 | 115 | 0.0 | 0.0 | 0.00 | 0.00 | 0.00 | 30 | 1010.8 |
| 20260502060110 | 23 | 96 | 0.0 | 0.0 | 0.00 | 0.00 | 0.00 | 31 | 1010.9 |
| 20260502055608 | 23 | 105 | 0.0 | 0.0 | 0.00 | 0.00 | 0.00 | 30 | 1010.8 |
| 20260502055106 | 23 | 105 | 0.0 | 0.0 | 0.00 | 0.00 | 0.00 | 29 | 1010.6 |
| 20260502054605 | 24 | 116 | 0.0 | 0.0 | 0.00 | 0.00 | 0.00 | 29 | 1010.7 |
| 20260502054102 | 25 | 118 | 0.0 | 0.0 | 0.00 | 0.00 | 0.00 | 28 | 1010.6 |
| 20260502053558 | 24 | 109 | 0.0 | 0.0 | 0.00 | 0.00 | 0.00 | 28 | 1010.8 |
| 20260502053056 | 24 | 123 | 0.0 | 0.0 | 0.00 | 0.00 | 0.00 | 29 | 1010.6 |
| 20260502052554 | 24 | 120 | 0.0 | 0.0 | 0.00 | 0.00 | 0.00 | 28 | 1010.7 |
| 20260502052052 | 24 | 106 | 0.0 | 0.0 | 0.00 | 0.00 | 0.00 | 29 | 1010.6 |
| 20260502051550 | 24 | 117 | 0.0 | 0.0 | 0.00 | 0.00 | 0.00 | 29 | 1010.7 |
| 20260502051048 | 25 | 103 | 0.0 | 0.0 | 0.00 | 0.00 | 0.00 | 28 | 1010.6 |
| 20260502050543 | 25 | 104 | 0.0 | 0.0 | 0.00 | 0.00 | 0.00 | 28 | 1010.4 |
| 20260502050040 | 25 | 108 | 0.0 | 0.0 | 0.00 | 0.00 | 0.00 | 27 | 1010.5 |
| 20260502045537 | 24 | 102 | 0.0 | 0.0 | 0.00 | 0.00 | 0.00 | 28 | 1010.4 |
| 20260502045034 | 25 | 100 | 0.0 | 0.0 | 0.00 | 0.00 | 0.00 | 29 | 1010.5 |
| 20260502044531 | 25 | 107 | 0.0 | 0.0 | 0.00 | 0.00 | 0.00 | 28 | 1010.4 |
| 20260502044027 | 25 | 105 | 0.0 | 0.0 | 0.00 | 0.00 | 0.00 | 28 | 1010.5 |
| 20260502043525 | 25 | 102 | 0.0 | 0.0 | 0.00 | 0.00 | 0.00 | 29 | 1010.4 |
| 20260502043021 | 25 | 99 | 0.0 | 0.0 | 0.00 | 0.00 | 0.00 | 28 | 1010.3 |
| 20260502042516 | 25 | 99 | 0.0 | 0.0 | 0.00 | 0.00 | 0.00 | 28 | 1010.5 |
| 20260502042014 | 25 | 102 | 0.0 | 0.0 | 0.00 | 0.00 | 0.00 | 28 | 1010.2 |
| 20260502041512 | 25 | 103 | 0.0 | 0.0 | 0.00 | 0.00 | 0.00 | 27 | 1010.2 |
| 20260502041008 | 25 | 98 | 0.0 | 0.0 | 0.00 | 0.00 | 0.00 | 27 | 1010.2 |
| 20260502040505 | 26 | 97 | 0.0 | 0.0 | 0.00 | 0.00 | 0.00 | 27 | 1010.2 |
| 20260502040002 | 26 | 95 | 0.0 | 0.0 | 0.00 | 0.00 | 0.00 | 27 | 1010.0 |
| 20260502035457 | 26 | 96 | 0.0 | 0.0 | 0.00 | 0.00 | 0.00 | 27 | 1010.0 |
| 20260502034955 | 26 | 99 | 0.0 | 0.0 | 0.00 | 0.00 | 0.00 | 26 | 1010.0 |
| 20260502034454 | 26 | 102 | 0.0 | 0.0 | 0.00 | 0.00 | 0.00 | 26 | 1009.6 |
| 20260502033952 | 26 | 100 | 0.0 | 0.0 | 0.00 | 0.00 | 0.00 | 26 | 1009.9 |
| 20260502033449 | 27 | 108 | 0.0 | 0.0 | 0.00 | 0.00 | 0.00 | 25 | 1009.6 |
| 20260502032946 | 27 | 129 | 0.0 | 0.0 | 0.00 | 0.00 | 0.00 | 25 | 1009.6 |
| 20260502032442 | 27 | 132 | 0.0 | 0.0 | 0.00 | 0.00 | 0.00 | 24 | 1009.5 |
| 20260502031939 | 27 | 121 | 0.0 | 0.0 | 0.00 | 0.00 | 0.00 | 24 | 1009.5 |
| 20260502031438 | 27 | 142 | 0.0 | 0.0 | 0.00 | 0.00 | 0.00 | 24 | 1009.1 |
| 20260502030935 | 28 | 127 | 0.0 | 0.0 | 0.00 | 0.00 | 0.00 | 24 | 1009.4 |
| 20260502030433 | 28 | 129 | 0.0 | 0.0 | 0.00 | 0.00 | 0.00 | 24 | 1009.3 |
| 20260502025931 | 28 | 174 | 0.0 | 0.0 | 0.00 | 0.00 | 0.00 | 24 | 1009.4 |
| 20260502025428 | 28 | 128 | 0.0 | 0.0 | 0.00 | 0.00 | 0.00 | 24 | 1009.4 |
| 20260502024926 | 28 | 166 | 0.0 | 0.0 | 0.00 | 0.00 | 0.00 | 24 | 1009.1 |
| 20260502024424 | 28 | 191 | 0.0 | 0.0 | 0.00 | 0.00 | 0.00 | 23 | 1009.2 |
| 20260502023922 | 28 | 145 | 0.0 | 0.0 | 0.00 | 0.00 | 0.00 | 24 | 1009.1 |
| 20260502023419 | 28 | 207 | 0.0 | 0.0 | 0.00 | 0.00 | 0.00 | 24 | 1009.2 |
| 20260502022916 | 29 | 140 | 0.0 | 0.0 | 0.00 | 0.00 | 0.00 | 23 | 1009.1 |
| 20260502022412 | 29 | 155 | 0.0 | 0.0 | 0.00 | 0.00 | 0.00 | 23 | 1008.7 |
| 20260502021909 | 29 | 188 | 0.0 | 0.0 | 0.00 | 0.00 | 0.00 | 23 | 1008.9 |
| 20260502021406 | 29 | 181 | 0.0 | 0.0 | 0.00 | 0.00 | 0.00 | 23 | 1008.9 |
| 20260502020904 | 30 | 207 | 0.0 | 1.6 | 0.00 | 0.00 | 0.00 | 23 | 1008.8 |
| 20260502020402 | 30 | 196 | 0.0 | 4.8 | 0.00 | 0.00 | 0.00 | 22 | 1008.9 |
| 20260502015858 | 30 | 185 | 0.0 | 1.6 | 0.00 | 0.00 | 0.00 | 22 | 1008.9 |
| 20260502015355 | 30 | 193 | 0.0 | 1.6 | 0.00 | 0.00 | 0.00 | 22 | 1008.8 |
| 20260502014852 | 30 | 127 | 0.0 | 4.8 | 0.00 | 0.00 | 0.00 | 22 | 1008.7 |
| 20260502014349 | 30 | 246 | 0.0 | 1.6 | 0.00 | 0.00 | 0.00 | 21 | 1008.7 |
| 20260502013845 | 30 | 196 | 0.0 | 0.0 | 0.00 | 0.00 | 0.00 | 20 | 1008.5 |
| 20260502013341 | 30 | 179 | 0.0 | 3.2 | 0.00 | 0.00 | 0.00 | 21 | 1008.6 |
| 20260502012838 | 30 | 228 | 0.0 | 0.0 | 0.00 | 0.00 | 0.00 | 21 | 1008.7 |
| 20260502012336 | 31 | 210 | 0.0 | 1.6 | 0.00 | 0.00 | 0.00 | 22 | 1008.7 |
| 20260502011833 | 31 | 206 | 1.6 | 3.2 | 0.00 | 0.00 | 0.00 | 22 | 1008.6 |
| 20260502011329 | 31 | 179 | 1.6 | 3.2 | 0.00 | 0.00 | 0.00 | 22 | 1008.6 |
| 20260502010826 | 31 | 195 | 0.0 | 1.6 | 0.00 | 0.00 | 0.00 | 22 | 1008.7 |
| 20260502010323 | 31 | 181 | 0.0 | 1.6 | 0.00 | 0.00 | 0.00 | 21 | 1008.7 |
| 20260502005819 | 31 | 259 | 0.0 | 0.0 | 0.00 | 0.00 | 0.00 | 21 | 1008.6 |
| 20260502005318 | 31 | 235 | 0.0 | 0.0 | 0.00 | 0.00 | 0.00 | 22 | 1008.7 |
| 20260502004815 | 31 | 226 | 1.6 | 3.2 | 0.00 | 0.00 | 0.00 | 22 | 1008.8 |
| 20260502004310 | 31 | 191 | 0.0 | 0.0 | 0.00 | 0.00 | 0.00 | 22 | 1009.0 |
| 20260502003809 | 31 | 176 | 0.0 | 1.6 | 0.00 | 0.00 | 0.00 | 22 | 1008.8 |
| 20260502003305 | 31 | 96 | 0.0 | 1.6 | 0.00 | 0.00 | 0.00 | 22 | 1008.8 |
| 20260502002801 | 31 | 143 | 0.0 | 0.0 | 0.00 | 0.00 | 0.00 | 22 | 1008.9 |
| 20260502002259 | 31 | 103 | 0.0 | 3.2 | 0.00 | 0.00 | 0.00 | 23 | 1008.6 |
| 20260502001756 | 31 | 269 | 0.0 | 3.2 | 0.00 | 0.00 | 0.00 | 22 | 1008.8 |
| 20260502001254 | 31 | 251 | 0.0 | 1.6 | 0.00 | 0.00 | 0.00 | 23 | 1008.8 |
| 20260502000751 | 31 | 188 | 0.0 | 1.6 | 0.00 | 0.00 | 0.00 | 24 | 1008.9 |
| 20260502000249 | 32 | 149 | 0.0 | 1.6 | 0.00 | 0.00 | 0.00 | 23 | 1009.0 |
| 20260501235744 | 32 | 233 | 0.0 | 0.0 | 0.00 | 0.00 | 0.00 | 23 | 1008.9 |
| 20260501235241 | 31 | 84 | 0.0 | 0.0 | 0.00 | 0.00 | 0.00 | 24 | 1009.0 |
| 20260501234736 | 31 | 226 | 0.0 | 4.8 | 0.00 | 0.00 | 0.00 | 24 | 1009.3 |
| 20260501234233 | 31 | 247 | 3.2 | 4.8 | 0.00 | 0.00 | 0.00 | 24 | 1009.0 |
| 20260501233732 | 31 | 208 | 1.6 | 3.2 | 0.00 | 0.00 | 0.00 | 24 | 1008.9 |
| 20260501233229 | 31 | 247 | 6.4 | 9.7 | 0.00 | 0.00 | 0.00 | 24 | 1008.9 |
| 20260501232724 | 31 | 115 | 0.0 | 1.6 | 0.00 | 0.00 | 0.00 | 24 | 1009.1 |
| 20260501232222 | 31 | 246 | 1.6 | 4.8 | 0.00 | 0.00 | 0.00 | 25 | 1009.0 |
| 20260501231719 | 31 | 255 | 0.0 | 0.0 | 0.00 | 0.00 | 0.00 | 25 | 1009.3 |
| 20260501231217 | 31 | 205 | 0.0 | 1.6 | 0.00 | 0.00 | 0.00 | 25 | 1009.2 |
| 20260501230715 | 31 | 132 | 1.6 | 4.8 | 0.00 | 0.00 | 0.00 | 25 | 1009.2 |
| 20260501230214 | 31 | 189 | 1.6 | 9.7 | 0.00 | 0.00 | 0.00 | 25 | 1009.2 |
| 20260501225711 | 31 | 231 | 3.2 | 3.2 | 0.00 | 0.00 | 0.00 | 25 | 1009.2 |
| 20260501225208 | 31 | 199 | 1.6 | 4.8 | 0.00 | 0.00 | 0.00 | 26 | 1009.6 |
| 20260501224704 | 31 | 198 | 0.0 | 1.6 | 0.00 | 0.00 | 0.00 | 25 | 1009.4 |
| 20260501224201 | 31 | 290 | 0.0 | 3.2 | 0.00 | 0.00 | 0.00 | 25 | 1009.8 |
| 20260501223658 | 30 | 210 | 0.0 | 0.0 | 0.00 | 0.00 | 0.00 | 26 | 1009.4 |
| 20260501223154 | 30 | 104 | 0.0 | 1.6 | 0.00 | 0.00 | 0.00 | 26 | 1009.6 |
| 20260501222650 | 30 | 205 | 1.6 | 3.2 | 0.00 | 0.00 | 0.00 | 26 | 1009.6 |
| 20260501222148 | 30 | 240 | 0.0 | 1.6 | 0.00 | 0.00 | 0.00 | 25 | 1009.8 |
| 20260501221644 | 30 | 225 | 1.6 | 11.3 | 0.00 | 0.00 | 0.00 | 25 | 1009.9 |
| 20260501221141 | 31 | 141 | 0.0 | 0.0 | 0.00 | 0.00 | 0.00 | 24 | 1009.9 |
| 20260501220639 | 30 | 142 | 0.0 | 0.0 | 0.00 | 0.00 | 0.00 | 25 | 1009.9 |
| 20260501220136 | 30 | 213 | 1.6 | 3.2 | 0.00 | 0.00 | 0.00 | 25 | 1010.0 |
| 20260501215633 | 31 | 144 | 0.0 | 3.2 | 0.00 | 0.00 | 0.00 | 23 | 1010.3 |
| 20260501215128 | 30 | 115 | 0.0 | 4.8 | 0.00 | 0.00 | 0.00 | 24 | 1010.2 |
| 20260501214623 | 30 | 86 | 0.0 | 1.6 | 0.00 | 0.00 | 0.00 | 23 | 1010.4 |
| 20260501214119 | 30 | 222 | 0.0 | 1.6 | 0.00 | 0.00 | 0.00 | 23 | 1010.5 |
| 20260501213616 | 30 | 335 | 0.0 | 0.0 | 0.00 | 0.00 | 0.00 | 22 | 1010.6 |
| 20260501213112 | 30 | 269 | 0.0 | 1.6 | 0.00 | 0.00 | 0.00 | 20 | 1010.8 |
| 20260501212609 | 30 | 218 | 0.0 | 3.2 | 0.00 | 0.00 | 0.00 | 22 | 1011.1 |
| 20260501212105 | 30 | 197 | 0.0 | 3.2 | 0.00 | 0.00 | 0.00 | 24 | 1010.8 |
| 20260501211602 | 30 | 78 | 0.0 | 0.0 | 0.00 | 0.00 | 0.00 | 23 | 1011.1 |
| 20260501211100 | 30 | 327 | 1.6 | 3.2 | 0.00 | 0.00 | 0.00 | 23 | 1011.0 |
| 20260501210556 | 30 | 202 | 1.6 | 4.8 | 0.00 | 0.00 | 0.00 | 25 | 1011.0 |
| 20260501210053 | 30 | 155 | 0.0 | 1.6 | 0.00 | 0.00 | 0.00 | 26 | 1011.1 |
| 20260501205550 | 28 | 287 | 0.0 | 1.6 | 0.00 | 0.00 | 0.00 | 27 | 1011.3 |
| 20260501205048 | 30 | 218 | 1.6 | 4.8 | 0.00 | 0.00 | 0.00 | 27 | 1011.2 |
| 20260501204543 | 30 | 156 | 0.0 | 0.0 | 0.00 | 0.00 | 0.00 | 26 | 1011.2 |
| 20260501204039 | 29 | 340 | 0.0 | 1.6 | 0.00 | 0.00 | 0.00 | 26 | 1011.1 |
| 20260501203536 | 29 | 290 | 0.0 | 3.2 | 0.00 | 0.00 | 0.00 | 25 | 1011.4 |
| 20260501203034 | 29 | 227 | 0.0 | 1.6 | 0.00 | 0.00 | 0.00 | 26 | 1011.3 |
| 20260501202531 | 29 | 62 | 0.0 | 1.6 | 0.00 | 0.00 | 0.00 | 26 | 1011.6 |
| 20260501202027 | 28 | 248 | 0.0 | 3.2 | 0.00 | 0.00 | 0.00 | 26 | 1011.8 |
| 20260501201525 | 28 | 231 | 1.6 | 3.2 | 0.00 | 0.00 | 0.00 | 27 | 1011.7 |
| 20260501201021 | 28 | 222 | 3.2 | 4.8 | 0.00 | 0.00 | 0.00 | 27 | 1011.6 |
| 20260501200518 | 30 | 346 | 0.0 | 1.6 | 0.00 | 0.00 | 0.00 | 27 | 1011.6 |
| 20260501200016 | 30 | 335 | 0.0 | 0.0 | 0.00 | 0.00 | 0.00 | 27 | 1011.9 |
| 20260501195513 | 29 | 106 | 0.0 | 0.0 | 0.00 | 0.00 | 0.00 | 27 | 1011.9 |
| 20260501195008 | 28 | 122 | 0.0 | 4.8 | 0.00 | 0.00 | 0.00 | 29 | 1011.8 |
| 20260501194504 | 28 | 151 | 0.0 | 8.0 | 0.00 | 0.00 | 0.00 | 29 | 1011.9 |
| 20260501194000 | 28 | 207 | 1.6 | 4.8 | 0.00 | 0.00 | 0.00 | 28 | 1012.0 |
| 20260501193458 | 27 | 46 | 0.0 | 0.0 | 0.00 | 0.00 | 0.00 | 28 | 1012.0 |
| 20260501192955 | 28 | 234 | 1.6 | 3.2 | 0.00 | 0.00 | 0.00 | 29 | 1012.1 |
| 20260501192453 | 27 | 97 | 0.0 | 0.0 | 0.00 | 0.00 | 0.00 | 28 | 1012.2 |
| 20260501191950 | 28 | 209 | 0.0 | 12.9 | 0.00 | 0.00 | 0.00 | 29 | 1012.1 |
| 20260501191447 | 28 | 178 | 0.0 | 1.6 | 0.00 | 0.00 | 0.00 | 29 | 1012.3 |
| 20260501190944 | 27 | 110 | 0.0 | 0.0 | 0.00 | 0.00 | 0.00 | 30 | 1012.4 |
| 20260501190440 | 28 | 142 | 0.0 | 3.2 | 0.00 | 0.00 | 0.00 | 30 | 1012.4 |
| 20260501185935 | 28 | 196 | 0.0 | 1.6 | 0.00 | 0.00 | 0.00 | 29 | 1012.4 |
| 20260501185431 | 27 | 195 | 0.0 | 8.0 | 0.00 | 0.00 | 0.00 | 30 | 1012.8 |
| 20260501184927 | 27 | 116 | 0.0 | 0.0 | 0.00 | 0.00 | 0.00 | 30 | 1012.9 |
| 20260501184425 | 27 | 204 | 0.0 | 0.0 | 0.00 | 0.00 | 0.00 | 30 | 1012.7 |
| 20260501183919 | 27 | 131 | 0.0 | 0.0 | 0.00 | 0.00 | 0.00 | 30 | 1013.0 |
| 20260501183416 | 27 | 98 | 0.0 | 1.6 | 0.00 | 0.00 | 0.00 | 30 | 1013.2 |
| 20260501182913 | 27 | 137 | 0.0 | 4.8 | 0.00 | 0.00 | 0.00 | 30 | 1013.2 |
| 20260501182409 | 27 | 190 | 0.0 | 1.6 | 0.00 | 0.00 | 0.00 | 31 | 1013.0 |
| 20260501181906 | 27 | 220 | 0.0 | 0.0 | 0.00 | 0.00 | 0.00 | 31 | 1013.0 |
| 20260501181403 | 27 | 224 | 0.0 | 0.0 | 0.00 | 0.00 | 0.00 | 31 | 1013.1 |
| 20260501180900 | 28 | 132 | 0.0 | 0.0 | 0.00 | 0.00 | 0.00 | 30 | 1013.4 |
| 20260501180357 | 28 | 118 | 0.0 | 0.0 | 0.00 | 0.00 | 0.00 | 31 | 1013.3 |
| 20260501175854 | 27 | 73 | 0.0 | 0.0 | 0.00 | 0.00 | 0.00 | 31 | 1013.5 |
| 20260501175351 | 27 | 6 | 0.0 | 0.0 | 0.00 | 0.00 | 0.00 | 32 | 1013.3 |
| 20260501174847 | 26 | 235 | 0.0 | 0.0 | 0.00 | 0.00 | 0.00 | 33 | 1013.4 |
| 20260501174345 | 26 | 89 | 0.0 | 0.0 | 0.00 | 0.00 | 0.00 | 33 | 1013.5 |
| 20260501173843 | 26 | 5 | 0.0 | 0.0 | 0.00 | 0.00 | 0.00 | 34 | 1013.5 |
| 20260501173340 | 26 | 85 | 0.0 | 0.0 | 0.00 | 0.00 | 0.00 | 34 | 1013.5 |
| 20260501172836 | 26 | 188 | 0.0 | 3.2 | 0.00 | 0.00 | 0.00 | 35 | 1013.6 |
| 20260501172331 | 26 | 164 | 0.0 | 0.0 | 0.00 | 0.00 | 0.00 | 34 | 1013.7 |
| 20260501171826 | 26 | 73 | 0.0 | 0.0 | 0.00 | 0.00 | 0.00 | 34 | 1013.6 |
| 20260501171323 | 26 | 44 | 0.0 | 0.0 | 0.00 | 0.00 | 0.00 | 34 | 1013.6 |
| 20260501170820 | 25 | 190 | 0.0 | 3.2 | 0.00 | 0.00 | 0.00 | 37 | 1013.5 |
| 20260501170317 | 26 | 309 | 0.0 | 0.0 | 0.00 | 0.00 | 0.00 | 36 | 1013.4 |
| 20260501165814 | 25 | 76 | 0.0 | 0.0 | 0.00 | 0.00 | 0.00 | 37 | 1013.9 |
| 20260501165312 | 25 | 194 | 0.0 | 1.6 | 0.00 | 0.00 | 0.00 | 37 | 1013.5 |
| 20260501164810 | 25 | 226 | 0.0 | 1.6 | 0.00 | 0.00 | 0.00 | 37 | 1013.8 |
| 20260501164308 | 25 | 145 | 0.0 | 0.0 | 0.00 | 0.00 | 0.00 | 36 | 1013.6 |
| 20260501163803 | 25 | 75 | 0.0 | 0.0 | 0.00 | 0.00 | 0.00 | 37 | 1013.4 |
| 20260501163300 | 24 | 243 | 0.0 | 0.0 | 0.00 | 0.00 | 0.00 | 38 | 1013.6 |
| 20260501162756 | 25 | 199 | 0.0 | 3.2 | 0.00 | 0.00 | 0.00 | 37 | 1013.6 |
| 20260501162253 | 24 | 161 | 0.0 | 1.6 | 0.00 | 0.00 | 0.00 | 38 | 1013.6 |